Orbital Elements at Epoch 2459200.5 (2020-Dec-17.0) TDB
Reference: JPL 10 (heliocentric ecliptic J2000)
Element | Value | Uncertainty (1-sigma) | Units |
e | .1494791686427044 | 4.9809e-08 | |
a | 2.328841983320224 | 9.4529e-09 | au |
q | 1.98072861975329 | 1.1474e-07 | au |
i | 2.478486375447607 | 4.8594e-06 | deg |
node | 20.07450880720561 | 0.00010326 | deg |
peri | 130.3779201530839 | 0.0001041 | deg |
M | 190.2174860059047 | 1.4472e-05 | deg |
tp | 2459812.707884812243 (2022-Aug-21.20788481) | 5.4029e-05 | TDB |
period | 1298.100925399611 3.55 | 7.9036e-06 2.164e-08 | d yr |
n | .2773282053467272 | 1.6885e-09 | deg/d |
Q | 2.676955346887158 | 1.0866e-08 | au |
|
| | Orbit Determination Parameters
Additional Information
|